Location: Degersen
(52.2871°N, 9.5716°E)
Time: 19:50:18
(UTC+00:00)

Cosmos 1328 - Pass Details

Date: 20 January 2026
Orbit: 460 x 472 km, 82.5° (Epoch: 16 February)

Event Time Altitude Azimuth Distance (km) Brightness Sun altitude
Exits shadow 05:01:00 16° 1° (N) 1,343 5.7 -20.6°
Maximum altitude 05:03:46 54° 76° (ENE) 587 4.2 -20.1°
Drops below altitude 10° 05:07:18 10° 155° (SSE) 1,644 6.7 -19.6°
Sets 05:09:25 0° 160° (SSE) 2,518 7.6 -19.3°
